TimeEDT,TemperatureF,Dew PointF,Humidity,Sea Level PressureIn,VisibilityMPH,Wind Direction,Wind SpeedMPH,Gust SpeedMPH,PrecipitationIn,Events,Conditions,WindDirDegrees,DateUTC
12:15 AM,68.0,64.4,88,29.95,10.0,Calm,Calm,-,N/A,,Clear,0,2012-09-30 04:15:00
12:35 AM,68.0,62.6,83,29.94,10.0,North,5.8,-,N/A,,Clear,10,2012-09-30 04:35:00
12:55 AM,68.0,62.6,83,29.94,10.0,North,5.8,-,N/A,,Clear,10,2012-09-30 04:55:00
1:15 AM,68.0,60.8,78,29.94,10.0,North,4.6,-,N/A,,Clear,360,2012-09-30 05:15:00
1:55 AM,64.4,59.0,83,29.93,10.0,North,3.5,-,N/A,,Clear,10,2012-09-30 05:55:00
2:15 AM,64.4,59.0,83,29.93,10.0,North,3.5,-,N/A,,Clear,360,2012-09-30 06:15:00
2:35 AM,64.4,59.0,83,29.92,10.0,Calm,Calm,-,N/A,,Clear,0,2012-09-30 06:35:00
2:55 AM,64.4,59.0,83,29.92,10.0,NNW,3.5,-,N/A,,Clear,330,2012-09-30 06:55:00
3:15 AM,64.4,59.0,83,29.92,10.0,North,4.6,-,N/A,,Clear,350,2012-09-30 07:15:00
3:35 AM,62.6,57.2,82,29.91,10.0,North,3.5,-,N/A,,Clear,350,2012-09-30 07:35:00
3:55 AM,62.6,55.4,77,29.91,10.0,Calm,Calm,-,N/A,,Clear,0,2012-09-30 07:55:00
4:15 AM,62.6,55.4,77,29.91,10.0,Calm,Calm,-,N/A,,Clear,0,2012-09-30 08:15:00
4:35 AM,62.6,57.2,82,29.90,10.0,Calm,Calm,-,N/A,,Clear,0,2012-09-30 08:35:00
4:55 AM,62.6,57.2,82,29.90,10.0,Calm,Calm,-,N/A,,Clear,0,2012-09-30 08:55:00
5:15 AM,60.8,57.2,88,29.90,10.0,Calm,Calm,-,N/A,,Clear,0,2012-09-30 09:15:00
5:35 AM,60.8,57.2,88,29.90,10.0,Calm,Calm,-,N/A,,Clear,0,2012-09-30 09:35:00
5:55 AM,60.8,59.0,94,29.90,10.0,Calm,Calm,-,N/A,,Clear,0,2012-09-30 09:55:00
6:15 AM,60.8,59.0,94,29.90,10.0,Calm,Calm,-,N/A,,Clear,0,2012-09-30 10:15:00
6:35 AM,60.8,59.0,94,29.90,10.0,Calm,Calm,-,N/A,,Clear,0,2012-09-30 10:35:00
6:55 AM,60.8,59.0,94,29.90,10.0,Calm,Calm,-,N/A,,Clear,0,2012-09-30 10:55:00
7:15 AM,60.8,57.2,88,29.90,10.0,Calm,Calm,-,N/A,,Clear,0,2012-09-30 11:15:00
7:35 AM,62.6,57.2,82,29.90,10.0,Calm,Calm,-,N/A,,Mostly Cloudy,0,2012-09-30 11:35:00
7:55 AM,62.6,55.4,77,29.90,10.0,Calm,Calm,-,N/A,,Scattered Clouds,0,2012-09-30 11:55:00
8:15 AM,62.6,57.2,82,29.90,10.0,Calm,Calm,-,N/A,,Scattered Clouds,0,2012-09-30 12:15:00
8:35 AM,62.6,57.2,82,29.90,10.0,Calm,Calm,-,N/A,,Scattered Clouds,0,2012-09-30 12:35:00
8:55 AM,62.6,57.2,82,29.90,10.0,Calm,Calm,-,N/A,,Mostly Cloudy,0,2012-09-30 12:55:00
9:15 AM,62.6,59.0,88,29.91,10.0,Calm,Calm,-,N/A,,Overcast,0,2012-09-30 13:15:00
9:35 AM,64.4,59.0,83,29.91,10.0,Calm,Calm,-,N/A,,Mostly Cloudy,0,2012-09-30 13:35:00
9:55 AM,64.4,60.8,88,29.91,10.0,Calm,Calm,-,N/A,Rain,Light Rain,0,2012-09-30 13:55:00
10:15 AM,64.4,60.8,88,29.91,10.0,ESE,4.6,-,N/A,Rain,Light Rain,120,2012-09-30 14:15:00
10:55 AM,64.4,62.6,94,29.91,10.0,Calm,Calm,-,N/A,Rain,Light Rain,0,2012-09-30 14:55:00
11:15 AM,64.4,62.6,94,29.91,10.0,Calm,Calm,-,N/A,,Light Drizzle,0,2012-09-30 15:15:00
11:55 AM,66.2,64.4,94,29.90,10.0,Calm,Calm,-,N/A,,Overcast,0,2012-09-30 15:55:00
12:15 PM,68.0,64.4,88,29.90,10.0,Calm,Calm,-,N/A,,Overcast,0,2012-09-30 16:15:00
12:35 PM,68.0,64.4,88,29.90,10.0,Calm,Calm,-,N/A,Rain,Light Rain,0,2012-09-30 16:35:00
12:55 PM,68.0,64.4,88,29.90,10.0,Calm,Calm,-,N/A,,Overcast,0,2012-09-30 16:55:00
1:15 PM,69.8,64.4,83,29.89,10.0,Calm,Calm,-,N/A,,Overcast,0,2012-09-30 17:15:00
1:35 PM,69.8,66.2,88,29.89,10.0,Calm,Calm,-,N/A,Rain,Light Rain,0,2012-09-30 17:35:00
1:55 PM,69.8,66.2,88,29.88,10.0,Calm,Calm,-,N/A,,Overcast,0,2012-09-30 17:55:00
2:15 PM,69.8,64.4,83,29.87,10.0,Calm,Calm,-,N/A,Rain,Light Rain,0,2012-09-30 18:15:00
2:35 PM,69.8,66.2,88,29.86,7.0,Calm,Calm,-,N/A,,Drizzle,0,2012-09-30 18:35:00
2:55 PM,69.8,68.0,94,29.85,5.0,SSE,3.5,-,N/A,,Light Drizzle,150,2012-09-30 18:55:00
3:15 PM,68.0,66.2,94,29.85,5.0,South,3.5,-,N/A,Rain,Rain,190,2012-09-30 19:15:00
3:35 PM,68.0,68.0,100,29.84,5.0,Calm,Calm,-,N/A,Rain,Rain,0,2012-09-30 19:35:00
3:55 PM,68.0,66.2,94,29.83,10.0,Calm,Calm,-,N/A,,Light Drizzle,0,2012-09-30 19:55:00
4:15 PM,69.8,68.0,94,29.83,7.0,Calm,Calm,-,N/A,Rain,Rain,0,2012-09-30 20:15:00
4:35 PM,68.0,66.2,94,29.82,3.0,East,3.5,-,N/A,Rain,Rain,100,2012-09-30 20:35:00
4:55 PM,68.0,66.2,94,29.82,2.5,SE,3.5,-,N/A,Rain,Light Rain,140,2012-09-30 20:55:00
5:15 PM,68.0,66.2,94,29.82,3.0,ESE,3.5,-,N/A,Rain,Light Rain,120,2012-09-30 21:15:00
5:35 PM,68.0,68.0,100,29.82,4.0,SE,3.5,-,N/A,Rain,Light Rain,140,2012-09-30 21:35:00
5:55 PM,68.0,68.0,100,29.81,4.0,Calm,Calm,-,N/A,Rain,Light Rain,0,2012-09-30 21:55:00
6:15 PM,68.0,68.0,100,29.81,3.0,SE,3.5,-,N/A,Rain,Heavy Rain,140,2012-09-30 22:15:00
6:35 PM,68.0,66.2,94,29.81,4.0,SE,4.6,-,N/A,Rain,Rain,130,2012-09-30 22:35:00
6:55 PM,68.0,68.0,100,29.81,3.0,East,4.6,-,N/A,Rain,Rain,100,2012-09-30 22:55:00
7:15 PM,68.0,66.2,94,29.81,4.0,ESE,4.6,-,N/A,Rain,Rain,120,2012-09-30 23:15:00
7:35 PM,68.0,66.2,94,29.81,7.0,ESE,3.5,-,N/A,Rain,Light Rain,110,2012-09-30 23:35:00
7:55 PM,68.0,66.2,94,29.81,7.0,SSE,3.5,-,N/A,Rain,Rain,150,2012-09-30 23:55:00
8:15 PM,68.0,66.2,94,29.80,7.0,Calm,Calm,-,N/A,Rain,Light Rain,0,2012-10-01 00:15:00
8:35 PM,68.0,66.2,94,29.80,7.0,East,4.6,-,N/A,Rain,Light Rain,100,2012-10-01 00:35:00
8:55 PM,68.0,66.2,94,29.80,5.0,SE,4.6,-,N/A,Rain,Rain,130,2012-10-01 00:55:00
9:15 PM,68.0,66.2,94,29.80,7.0,SE,3.5,-,N/A,Rain,Rain,130,2012-10-01 01:15:00
9:35 PM,68.0,66.2,94,29.80,7.0,ESE,3.5,-,N/A,Rain,Light Rain,110,2012-10-01 01:35:00
9:55 PM,68.0,66.2,94,29.80,10.0,SE,5.8,-,N/A,Rain,Light Rain,130,2012-10-01 01:55:00
10:15 PM,68.0,66.2,94,29.80,7.0,SE,5.8,-,N/A,Rain,Light Rain,140,2012-10-01 02:15:00
10:35 PM,68.0,66.2,94,29.79,10.0,SE,5.8,-,N/A,,Drizzle,130,2012-10-01 02:35:00
10:55 PM,68.0,66.2,94,29.80,10.0,SSE,5.8,-,N/A,,Drizzle,150,2012-10-01 02:55:00
11:15 PM,68.0,66.2,94,29.80,10.0,SSE,6.9,-,N/A,Rain,Rain,150,2012-10-01 03:15:00
11:35 PM,68.0,68.0,100,29.80,10.0,SSE,6.9,-,N/A,Rain,Rain,150,2012-10-01 03:35:00
11:55 PM,68.0,68.0,100,29.80,10.0,SSE,6.9,-,N/A,Rain,Light Rain,150,2012-10-01 03:55:00